Location: ????? ???????
(25.7275°N, 32.5929°E)
Time: 11:37:49
(UTC+00:00)

MetOp-A - Pass Details

Date: 02 March 2021
Orbit: 819 x 821 km, 98.5° (Epoch: 16 April)

Event Time Altitude Azimuth Distance (km) Brightness Sun altitude
Exits shadow 18:06:51 61° 271° (W) 924 4.5 -31.1°
Drops below altitude 10° 18:11:56 10° 339° (NNW) 2,418 6.9 -32.2°
Sets 18:14:19 0° 343° (NNW) 3,353 7.6 -32.8°
